| time (UTC) | temp C | wind direction | speed KPH | gust KPH | rain 1hr cm | rain 24hr cm | rain mn cm | humidity % | barometer mb |
| 20260504190010 | 27 | 49 | 3.2 | 17.7 | 0.00 | 0.00 | 0.00 | 48 | 1014.9 |
| 20260504184509 | 27 | 81 | 12.9 | 19.3 | 0.00 | 0.00 | 0.00 | 48 | 1015.1 |
| 20260504183010 | 27 | 109 | 4.8 | 19.3 | 0.00 | 0.00 | 0.00 | 48 | 1015.4 |
| 20260504181506 | 27 | 104 | 8.0 | 19.3 | 0.00 | 0.00 | 0.00 | 46 | 1015.5 |
| 20260504180003 | 26 | 41 | 4.8 | 22.5 | 0.00 | 0.00 | 0.00 | 46 | 1015.7 |
| 20260504174502 | 27 | 103 | 9.7 | 17.7 | 0.00 | 0.00 | 0.00 | 47 | 1016.4 |
| 20260504173001 | 26 | 97 | 8.0 | 25.7 | 0.00 | 0.00 | 0.00 | 50 | 1016.2 |
| 20260504171609 | 26 | 360 | 11.3 | 20.9 | 0.00 | 0.00 | 0.00 | 48 | 1016.2 |
| 20260504081515 | 19 | 48 | 8.0 | 16.1 | 0.00 | 0.00 | 0.00 | 80 | 1015.7 |
| 20260504044553 | 21 | 69 | 11.3 | 19.3 | 0.00 | 0.00 | 0.00 | 75 | 1016.9 |
| 20260504043056 | 21 | 62 | 8.0 | 24.1 | 0.00 | 0.00 | 0.00 | 75 | 1016.6 |
| 20260504041547 | 22 | 76 | 11.3 | 16.1 | 0.00 | 0.00 | 0.00 | 75 | 1017.1 |
| 20260504040046 | 21 | 64 | 8.0 | 11.3 | 0.00 | 0.00 | 0.00 | 74 | 1017.2 |
| 20260504034550 | 21 | 67 | 4.8 | 16.1 | 0.00 | 0.00 | 0.00 | 72 | 1017.2 |
| 20260504033043 | 22 | 55 | 6.4 | 11.3 | 0.00 | 0.00 | 0.00 | 71 | 1017.3 |
| 20260504031544 | 22 | 44 | 4.8 | 12.9 | 0.00 | 0.00 | 0.00 | 70 | 1017.3 |
| 20260504030042 | 22 | 34 | 8.0 | 19.3 | 0.00 | 0.00 | 0.00 | 69 | 1017.1 |
| 20260504024547 | 22 | 355 | 9.7 | 17.7 | 0.00 | 0.00 | 0.00 | 69 | 1017.0 |
| 20260504023041 | 22 | 343 | 6.4 | 19.3 | 0.00 | 0.00 | 0.00 | 69 | 1016.9 |
| 20260504021541 | 22 | 13 | 11.3 | 19.3 | 0.00 | 0.00 | 0.00 | 69 | 1016.7 |
| 20260504020042 | 22 | 55 | 8.0 | 17.7 | 0.00 | 0.00 | 0.00 | 70 | 1016.5 |
| 20260504014541 | 22 | 31 | 9.7 | 16.1 | 0.00 | 0.00 | 0.00 | 70 | 1016.5 |
| 20260504013054 | 22 | 9 | 14.5 | 20.9 | 0.00 | 0.00 | 0.00 | 69 | 1016.0 |
| 20260504011539 | 22 | 54 | 9.7 | 20.9 | 0.00 | 0.00 | 0.00 | 69 | 1016.0 |
| 20260504010041 | 22 | 40 | 11.3 | 22.5 | 0.00 | 0.00 | 0.00 | 69 | 1015.7 |
| 20260504004537 | 22 | 28 | 6.4 | 17.7 | 0.00 | 0.00 | 0.00 | 69 | 1015.6 |
| 20260504003037 | 22 | 351 | 14.5 | 24.1 | 0.00 | 0.00 | 0.00 | 72 | 1015.4 |
| 20260504001540 | 23 | 337 | 17.7 | 24.1 | 0.00 | 0.00 | 0.00 | 72 | 1015.3 |
| 20260504000036 | 23 | 345 | 12.9 | 24.1 | 0.00 | 0.00 | 0.00 | 71 | 1015.1 |
| 20260503234536 | 23 | 343 | 17.7 | 25.7 | 0.00 | 0.00 | 0.00 | 70 | 1015.2 |
| 20260503233035 | 23 | 355 | 12.9 | 24.1 | 0.00 | 0.00 | 0.00 | 71 | 1015.2 |
| 20260503231535 | 23 | 341 | 11.3 | 25.7 | 0.00 | 0.00 | 0.00 | 71 | 1015.2 |
| 20260503230039 | 23 | 360 | 14.5 | 24.1 | 0.00 | 0.00 | 0.00 | 70 | 1015.1 |
| 20260503224534 | 23 | 284 | 14.5 | 24.1 | 0.00 | 0.03 | 0.00 | 69 | 1015.2 |
| 20260503223034 | 23 | 290 | 11.3 | 27.4 | 0.00 | 0.03 | 0.00 | 70 | 1015.2 |
| 20260503221533 | 23 | 360 | 12.9 | 27.4 | 0.00 | 0.03 | 0.00 | 69 | 1015.2 |
| 20260503220032 | 23 | 346 | 17.7 | 27.4 | 0.00 | 0.03 | 0.00 | 68 | 1015.2 |
| 20260503214538 | 23 | 360 | 11.3 | 27.4 | 0.00 | 0.15 | 0.00 | 68 | 1015.2 |
| 20260503213030 | 24 | 332 | 16.1 | 25.7 | 0.00 | 0.15 | 0.00 | 66 | 1015.2 |
| 20260503211530 | 24 | 292 | 9.7 | 20.9 | 0.00 | 0.15 | 0.00 | 66 | 1015.4 |
| 20260503210029 | 24 | 338 | 8.0 | 22.5 | 0.00 | 0.15 | 0.00 | 67 | 1015.3 |
| 20260503204530 | 23 | 335 | 14.5 | 24.1 | 0.00 | 0.23 | 0.00 | 66 | 1015.4 |
| 20260503203035 | 24 | 342 | 11.3 | 25.7 | 0.00 | 0.23 | 0.00 | 66 | 1015.5 |
| 20260503201529 | 24 | 288 | 8.0 | 19.3 | 0.00 | 0.23 | 0.00 | 65 | 1015.6 |
| 20260503200029 | 24 | 309 | 14.5 | 22.5 | 0.00 | 0.23 | 0.00 | 65 | 1016.0 |
| 20260503194527 | 24 | 311 | 12.9 | 25.7 | 0.00 | 0.51 | 0.00 | 65 | 1016.1 |
| 20260503193041 | 25 | 18 | 12.9 | 27.4 | 0.00 | 0.51 | 0.00 | 60 | 1016.2 |
| 20260503191557 | 24 | 78 | 9.7 | 17.7 | 0.00 | 0.51 | 0.00 | 60 | 1016.3 |